Weather History for Rochester, MN

Change the Weather History Date:

Sunday, March 24, 2013

  Actual Average Record
Temperature  
Mean Temperature 28 °F 36 °F  
Max Temperature 32 °F 45 °F 82 °F (1910)
Min Temperature 24 °F 28 °F -9 °F (1974)
Degree Days  
Heating Degree Days 37 29  
Month to date heating degree days 1030 822  
Since 1 July heating degree days 6481 6683  
Cooling Degree Days 0 0  
Month to date cooling degree days 0 0  
Year to date cooling degree days 0 0  
Moisture  
Dew Point 20 °F    
Average Humidity 69    
Maximum Humidity 75    
Minimum Humidity 63    
Precipitation  
Precipitation 0.02 in 0.07 in 1.51 in (1996)
Month to date precipitation 2.74 1.35  
Year to date precipitation 4.74 3.04  
Snow  
Snow T in 0.30 in 1.80 in (1979)
Month to date snowfall 23.5 7.3  
Since 1 July snowfall 55.3 47.2  
Snow Depth 10.00 in    
Sea Level Pressure  
Sea Level Pressure 30.00 in    
Wind  
Wind Speed 11 mph (North)    
Max Wind Speed 24 mph    
Max Gust Speed 29 mph    
Visibility 7 miles    
Events Snow    
T = Trace of Precipitation, MM = Missing Value Source: NWS Daily Summary

Daily Weather History Graph

Daily Weather History Graph

Search for Another Location

Airport:

Trip Planner

Search our weather history database for the weather conditions in past years. The results will help you decide how hot, cold, wet, or windy it might be!

Date:

Astronomy

Mar. 24, 2013 Rise Set
Actual Time 7:05 AM CDT 7:27 PM CDT
Civil Twilight 6:36 AM CDT 7:56 PM CDT
Nautical Twilight 6:02 AM CDT 8:30 PM CDT
Astronomical Twilight 5:27 AM CDT 9:05 PM CDT
Moon 4:52 PM CDT (3/24) 5:20 AM CDT (3/24)
Length of Visible Light 13h 19m
Length of Day
12h 22m
Waxing Gibbous, 92% of the Moon is Illuminated
Mar 24
Waxing Gibbous
Mar 27
Full
Apr 2
Last Quarter
Apr 10
New
Apr 18
First Quarter

Hourly Weather History & Observations

Time (CDT) Temp. Windchill Dew Point Humidity Pressure Visibility Wind Dir Wind Speed Gust Speed Precip Events Conditions
12:54 AM 26.1 °F 17.6 °F 17.1 °F 69% 30.10 in 10.0 mi NNW 8.1 mph - N/A   Overcast
1:54 AM 27.0 °F 18.7 °F 17.1 °F 66% 30.08 in 10.0 mi North 8.1 mph - N/A   Overcast
2:54 AM 27.0 °F 18.0 °F 17.1 °F 66% 30.07 in 10.0 mi North 9.2 mph - N/A   Overcast
3:54 AM 26.1 °F 19.4 °F 17.1 °F 69% 30.06 in 10.0 mi NNW 5.8 mph - N/A   Overcast
4:54 AM 26.1 °F 18.4 °F 17.1 °F 69% 30.04 in 9.0 mi NNW 6.9 mph - N/A   Overcast
5:54 AM 26.1 °F 20.5 °F 18.0 °F 71% 30.03 in 9.0 mi NNE 4.6 mph - N/A   Overcast
6:54 AM 26.1 °F 19.4 °F 18.0 °F 71% 30.04 in 8.0 mi North 5.8 mph - N/A   Overcast
7:54 AM 26.1 °F 18.4 °F 19.0 °F 75% 30.04 in 8.0 mi North 6.9 mph - N/A   Overcast
8:54 AM 28.0 °F 20.8 °F 19.9 °F 72% 30.03 in 9.0 mi NNE 6.9 mph - N/A   Overcast
9:54 AM 30.0 °F 21.7 °F 21.0 °F 69% 30.01 in 10.0 mi NNE 9.2 mph - N/A   Overcast
10:54 AM 30.9 °F 22.2 °F 21.9 °F 69% 30.01 in 4.0 mi NNE 10.4 mph - 0.00 in   Haze
11:54 AM 30.9 °F 26.2 °F 23.0 °F 72% 30.02 in 3.0 mi NE 4.6 mph - N/A   Haze
12:03 PM 30.2 °F 22.6 °F 23.0 °F 75% 29.96 in 1.8 mi NE 8.1 mph - 0.00 in Snow Light Snow
12:23 PM 30.2 °F 23.4 °F 24.8 °F 80% 29.96 in 1.2 mi NNE 6.9 mph - 0.00 in Snow Light Snow
12:46 PM 30.2 °F 22.6 °F 24.8 °F 80% 29.95 in 0.8 mi North 8.1 mph - 0.01 in Snow Light Snow
12:54 PM 30.9 °F 24.3 °F 23.0 °F 72% 30.00 in 1.0 mi North 6.9 mph - 0.01 in Snow Light Snow
1:40 PM 32.0 °F 23.6 °F 23.0 °F 69% 29.93 in 1.2 mi North 10.4 mph - 0.01 in Snow Light Snow
1:50 PM 30.2 °F 19.8 °F 23.0 °F 75% 29.93 in 1.2 mi NNE 13.8 mph - 0.01 in Snow Light Snow
1:54 PM 30.9 °F 20.7 °F 23.0 °F 72% 29.98 in 1.2 mi NNE 13.8 mph - 0.01 in   Overcast
2:01 PM 30.2 °F 20.8 °F 23.0 °F 75% 29.92 in 3.0 mi NNE 11.5 mph - 0.00 in   Overcast
2:54 PM 32.0 °F 23.6 °F 21.0 °F 64% 29.96 in 10.0 mi North 10.4 mph - 0.00 in   Overcast
3:54 PM 30.9 °F 19.8 °F 21.0 °F 67% 29.95 in 10.0 mi NNE 16.1 mph - N/A   Overcast
4:23 PM 30.2 °F 19.3 °F 21.2 °F 69% 29.90 in 10.0 mi NNE 15.0 mph - N/A   Overcast
4:54 PM 30.0 °F 18.3 °F 21.0 °F 69% 29.95 in 10.0 mi North 17.3 mph - N/A   Overcast
5:54 PM 30.0 °F 19.1 °F 21.0 °F 69% 29.96 in 10.0 mi North 15.0 mph - N/A   Overcast
6:22 PM 30.2 °F 18.9 °F 19.4 °F 64% 29.91 in 10.0 mi North 16.1 mph - N/A   Overcast
6:54 PM 30.0 °F 18.3 °F 19.0 °F 64% 29.97 in 10.0 mi North 17.3 mph - N/A   Overcast
7:54 PM 30.0 °F 19.5 °F 19.0 °F 64% 29.99 in 10.0 mi North 13.8 mph 20.7 mph N/A   Overcast
8:54 PM 28.9 °F 19.2 °F 19.0 °F 67% 30.00 in 10.0 mi North 11.5 mph - N/A   Overcast
9:54 PM 28.9 °F 18.2 °F 19.9 °F 69% 30.00 in 10.0 mi North 13.8 mph - N/A   Overcast
10:54 PM 28.9 °F 18.6 °F 21.0 °F 72% 29.99 in 10.0 mi North 12.7 mph - N/A   Overcast
11:54 PM 28.0 °F 13.6 °F 19.0 °F 69% 30.00 in 10.0 mi North 24.2 mph 27.6 mph N/A   Overcast